DW1053 Weather Reports


Display with metric or nautical units.
time (UTC)temp
F
wind
direction
speed
MPH
gust
MPH
rain 1hr
in
rain 24hr
in
rain mn
in
humidity
%
barometer
mb
20260509210206 61 307 0.0 0.0 0.00 0.00 0.00 59 1008.0
20260509200206 65 307 0.0 0.0 0.00 0.00 0.00 52 1008.1
20260509190207 69 305 0.0 1.0 0.00 0.00 0.00 44 1007.9
20260509180236 71 323 1.0 7.0 0.00 0.00 0.00 39 1008.4
20260509170206 73 277 1.0 6.0 0.00 0.00 0.00 36 1008.2
20260509150206 75 276 0.0 5.0 0.00 0.00 0.00 27 1008.9
20260509130206 77 335 0.0 2.0 0.00 0.00 0.00 28 1010.5
20260509120205 77 340 0.0 5.0 0.00 0.00 0.00 32 1011.2
20260509110206 75 355 0.0 3.0 0.00 0.00 0.00 34 1011.8
20260509100207 73 122 0.0 1.0 0.00 0.00 0.00 39 1012.1
20260509090206 68 127 0.0 1.0 0.00 0.00 0.00 55 1012.5
20260509080208 63 124 0.0 1.0 0.00 0.00 0.00 66 1012.6
20260509070208 57 132 0.0 1.0 0.00 0.00 0.00 80 1012.6
20260509060206 53 133 0.0 0.0 0.00 0.00 0.00 86 1012.3
20260509050212 51 134 0.0 1.0 0.00 0.00 0.00 90 1011.8
20260509040205 51 130 0.0 0.0 0.00 0.00 0.00 89 1011.6
20260509030206 52 141 0.0 0.0 0.00 0.00 0.00 88 1011.6
20260509020209 53 155 0.0 0.0 0.00 0.00 0.00 87 1011.6
20260509010207 54 181 0.0 1.0 0.00 0.00 0.00 85 1011.6
20260509000226 55 185 0.0 0.0 0.00 0.00 0.00 83 1011.5
20260508230207 56 187 0.0 0.0 0.00 0.00 0.00 78 1011.8
20260508220207 59 171 0.0 0.0 0.00 0.00 0.00 70 1011.6